Stations météo

réclame
Mon MeteoGroup
Frankfurt/Main, Allemagne (10637): Température de l'air & dewpoint: 14.10.2018 15:00:00 - 20.10.2018 15:00:00 (CEST)Frankfurt/Main, Allemagne (10637): Température de l'air 5cm & Température de l'air -5cm: 14.10.2018 15:00:00 - 20.10.2018 15:00:00 (CEST)Frankfurt/Main, Allemagne (10637): Température de l'air -20cm & Température de l'air -100cm: 14.10.2018 15:00:00 - 20.10.2018 15:00:00 (CEST)Frankfurt/Main, Allemagne (10637): Vitesse du vent & gusts: 14.10.2018 15:00:00 - 20.10.2018 15:00:00 (CEST)Frankfurt/Main, Allemagne (10637): Direction du vent: 14.10.2018 15:00:00 - 20.10.2018 15:00:00 (CEST)Frankfurt/Main, Allemagne (10637): reduced air pressure: 14.10.2018 15:00:00 - 20.10.2018 15:00:00 (CEST)Frankfurt/Main, Allemagne (10637): visibility: 14.10.2018 15:00:00 - 20.10.2018 15:00:00 (CEST)Frankfurt/Main, Allemagne (10637): Ensoleillement: 14.10.2018 15:00:00 - 20.10.2018 15:00:00 (CEST)Frankfurt/Main, Allemagne (10637): Quantités de précipitations: 14.10.2018 15:00:00 - 20.10.2018 15:00:00 (CEST)
Date & Time tt [°C] td [°C] tt 5cm [°C] tt -5cm [°C] tt -20cm [°C] tt -100cm [°C] ff [km/h] ff [knt] fx [km/h] fx [knt] dd ppp [hPa] vv [km] sd [min] rr [mm]
20.10.2018 15:00:00 17,0 6,6 - - - - 7 4 18 10 N 1029,1 25 59 -
20.10.2018 14:00:00 16,6 7,0 19,9 19,0 16,1 17,2 9 5 28 15 NE 1029,8 25 60 0,0
20.10.2018 13:00:00 15,7 6,7 18,7 18,0 15,8 17,2 14 7 22 12 NNE 1030,1 25 60 0,0
20.10.2018 12:00:00 15,2 7,2 17,1 16,4 15,6 17,2 15 8 40 21 NNE 1030,1 10 60 0,0
20.10.2018 11:00:00 14,8 8,2 16,0 15,1 15,5 17,2 18 10 35 19 NNE 1029,7 10 60 0,0
20.10.2018 10:00:00 12,9 8,4 12,9 13,8 15,5 17,2 9 5 9 5 NNE 1029,3 10 60 0,0
20.10.2018 09:00:00 9,8 7,9 8,3 13,2 15,7 17,2 2 1 11 6 - 1028,6 10 22 0,0
20.10.2018 08:00:00 10,2 8,5 8,3 13,7 15,8 17,2 8 4 8 4 E 1027,8 10 0 0,0
20.10.2018 07:00:00 11,7 9,0 8,9 14,2 15,9 17,2 5 3 5 3 E 1027,3 10 0 0,0
20.10.2018 06:00:00 13,6 9,5 12,4 14,5 16,0 17,2 4 2 5 3 ENE 1026,7 15 0 0,0
20.10.2018 05:00:00 11,7 8,9 10,8 14,6 16,1 17,2 4 2 5 3 - 1026,2 10 0 0,0
20.10.2018 04:00:00 13,2 9,8 12,4 14,6 16,2 17,2 3 2 8 4 E 1025,8 15 0 0,0
20.10.2018 03:00:00 12,1 9,2 10,8 14,6 16,3 17,2 4 2 8 4 ENE 1025,6 15 0 0,0
20.10.2018 02:00:00 12,2 9,4 11,3 14,5 16,5 17,2 5 3 8 4 NE 1025,5 15 0 0,0
20.10.2018 01:00:00 12,0 9,4 9,9 14,6 16,6 17,2 5 3 5 3 NE 1025,2 17 0 0,0
20.10.2018 00:00:00 13,4 9,1 11,0 15,3 16,8 17,2 5 3 13 7 ENE 1025,2 10 0 0,0
19.10.2018 23:00:00 15,5 9,6 14,5 15,8 16,9 17,2 10 5 28 15 NE 1024,9 20 0 0,0
19.10.2018 22:00:00 15,1 9,7 14,5 15,6 17,1 17,2 9 5 13 7 NNE 1024,8 20 0 0,0
19.10.2018 21:00:00 13,0 9,2 10,3 15,9 17,3 17,2 11 6 15 8 NNE 1024,4 20 0 0,0
19.10.2018 20:00:00 15,5 9,4 14,1 16,6 17,4 17,2 11 6 16 8 NNE 1023,6 10 0 0,0
19.10.2018 19:00:00 16,6 9,5 14,1 17,6 17,5 17,2 9 5 23 13 NE 1022,8 10 0 0,0
19.10.2018 18:00:00 17,5 9,3 16,8 18,8 17,5 17,2 16 9 20 11 ENE 1022,5 10 44 0,0
19.10.2018 17:00:00 18,1 9,2 18,7 19,6 17,3 17,3 13 7 20 11 NNE 1022,6 23 34 0,0
19.10.2018 16:00:00 18,5 9,0 20,4 20,2 17,0 17,3 15 8 23 13 NE 1022,5 10 59 0,0
19.10.2018 15:00:00 18,5 9,0 21,9 20,0 16,6 17,3 12 7 26 14 NNE 1022,7 23 60 0,0
19.10.2018 14:00:00 17,8 9,4 21,4 19,2 16,2 17,3 11 6 22 12 ENE 1023,4 10 60 0,0
19.10.2018 13:00:00 16,8 9,1 20,0 18,0 15,9 17,3 11 6 18 10 E 1023,9 10 60 0,0
19.10.2018 12:00:00 15,8 8,9 18,1 16,5 15,7 17,3 13 7 25 14 NNE 1024,1 10 60 0,0
19.10.2018 11:00:00 14,1 8,6 14,5 15,2 15,6 17,3 13 7 23 12 NNE 1024,2 10 60 0,0
19.10.2018 10:00:00 13,8 8,6 14,2 14,3 15,7 17,3 15 8 11 6 NE 1024,1 10 60 0,0
19.10.2018 09:00:00 12,1 8,5 11,1 13,7 15,8 17,3 11 6 9 5 NE 1023,7 10 0 0,0
19.10.2018 08:00:00 11,7 8,3 10,1 14,1 15,8 17,3 13 7 16 9 NNE 1023,4 10 0 0,0
19.10.2018 07:00:00 12,6 8,4 12,3 14,2 15,9 17,3 13 7 18 10 NNE 1023,2 20 0 0,0
19.10.2018 06:00:00 12,4 8,1 12,2 14,1 16,0 17,3 18 10 18 10 NNE 1023,1 10 0 0,0
19.10.2018 05:00:00 11,9 8,0 11,6 13,8 16,2 17,3 13 7 18 10 NNE 1022,9 23 0 0,0
19.10.2018 04:00:00 11,4 7,7 10,2 13,9 16,3 17,3 11 6 17 9 NNE 1023,0 30 0 0,0
19.10.2018 03:00:00 11,9 7,7 10,7 14,2 16,5 17,3 11 6 18 10 NNE 1023,0 30 0 0,0
19.10.2018 02:00:00 12,5 7,9 11,3 14,6 16,7 17,3 13 7 22 12 NE 1023,0 30 0 0,0
19.10.2018 01:00:00 13,0 8,2 11,9 14,9 16,9 17,3 16 9 26 14 NNE 1023,1 30 0 0,0
19.10.2018 00:00:00 13,5 8,7 12,3 15,3 17,1 17,3 18 10 22 12 NNE 1023,2 10 0 0,0
18.10.2018 23:00:00 14,3 9,3 13,2 15,7 17,2 17,3 21 11 32 17 NNE 1023,3 10 0 0,0
18.10.2018 22:00:00 14,7 9,7 13,4 16,1 17,4 17,3 11 6 23 12 NNE 1022,9 17 0 0,0
18.10.2018 21:00:00 15,4 9,9 14,2 16,6 17,6 17,3 16 9 35 19 NE 1022,6 17 0 0,0
18.10.2018 20:00:00 16,2 9,9 15,2 17,2 17,7 17,3 21 11 29 16 NNE 1022,0 10 0 0,0
18.10.2018 19:00:00 17,3 10,2 16,2 18,0 17,8 17,3 19 10 39 21 NNE 1021,7 17 0 0,0
18.10.2018 18:00:00 18,4 10,3 17,8 19,0 17,8 17,3 21 11 33 18 NNE 1021,0 17 53 0,0
18.10.2018 17:00:00 19,1 10,2 19,3 19,8 17,6 17,3 20 11 42 23 NNE 1020,8 16 60 0,0
18.10.2018 16:00:00 19,3 10,8 20,8 20,3 17,3 17,3 24 13 48 26 N 1020,9 10 54 0,0
18.10.2018 15:00:00 20,2 11,2 21,6 20,4 16,9 17,3 24 13 41 22 NNE 1020,6 10 60 0,0
18.10.2018 14:00:00 19,6 11,2 21,8 19,9 16,5 17,3 21 11 41 22 NNE 1020,8 10 60 0,0
18.10.2018 13:00:00 18,2 10,9 20,6 18,5 16,1 17,3 16 9 29 16 NNE 1021,2 10 60 0,0
18.10.2018 12:00:00 16,9 10,7 18,5 17,1 15,9 17,3 18 10 38 20 NE 1021,5 9 60 0,0
18.10.2018 11:00:00 16,0 10,5 17,3 15,6 15,7 17,3 18 10 41 22 NNE 1021,7 8 60 0,0
18.10.2018 10:00:00 15,2 10,0 15,2 14,2 15,7 17,3 16 9 34 18 NNE 1021,4 10 60 0,0
18.10.2018 09:00:00 12,6 9,2 11,7 13,3 15,9 17,3 9 5 16 9 NE 1021,1 17 25 0,0
18.10.2018 08:00:00 10,5 8,6 8,8 13,4 16,0 17,3 8 4 9 5 ENE 1020,5 10 0 0,0
18.10.2018 07:00:00 10,1 8,3 7,9 13,6 16,2 17,3 8 4 8 4 E 1020,0 10 0 0,0
18.10.2018 06:00:00 9,6 8,3 7,8 13,7 16,4 17,3 4 2 5 3 NE 1020,0 18 0 0,0
18.10.2018 05:00:00 9,7 8,4 7,4 13,9 16,6 17,3 2 1 5 3 - 1019,7 10 0 0,0
18.10.2018 04:00:00 10,3 8,7 8,1 14,3 16,8 17,3 4 2 5 3 NE 1019,6 10 0 0,0
18.10.2018 03:00:00 12,0 9,4 10,3 14,5 17,0 17,3 8 4 8 4 NNE 1019,7 10 0 0,0
18.10.2018 02:00:00 11,1 8,9 8,5 14,8 17,2 17,3 9 5 5 3 N 1019,8 10 0 0,0
18.10.2018 01:00:00 11,3 8,9 8,8 15,2 17,4 17,3 5 3 5 3 NNW 1019,8 10 0 0,0
18.10.2018 00:00:00 11,9 8,9 9,3 15,6 17,7 17,3 4 2 8 4 WSW 1019,7 10 0 0,0
17.10.2018 23:00:00 13,6 9,5 10,7 16,1 17,9 17,3 4 2 11 6 - 1019,5 10 0 0,0
17.10.2018 22:00:00 13,9 9,3 10,9 16,7 18,1 17,3 4 2 8 4 - 1019,3 10 0 0,0
17.10.2018 21:00:00 15,2 9,5 11,5 17,4 18,4 17,3 5 3 8 4 NNE 1018,7 10 0 0,0
17.10.2018 20:00:00 16,5 9,5 13,5 18,3 18,5 17,3 4 2 9 5 - 1018,4 10 0 0,0
17.10.2018 19:00:00 18,4 9,4 15,1 19,5 18,6 17,3 8 4 9 5 N 1018,1 10 0 0,0
17.10.2018 18:00:00 21,7 8,8 20,6 21,0 18,5 17,3 8 4 15 8 N 1017,7 10 47 0,0
17.10.2018 17:00:00 23,0 8,2 25,1 21,6 18,2 17,3 9 5 12 7 E 1017,6 10 60 0,0
17.10.2018 16:00:00 22,6 8,4 26,7 21,6 17,9 17,3 4 2 12 7 - 1017,7 10 60 0,0
17.10.2018 15:00:00 22,2 8,2 26,2 21,5 17,5 17,3 5 3 13 7 E 1018,0 10 60 0,0
17.10.2018 14:00:00 21,2 9,0 25,6 20,6 17,0 17,3 5 3 15 8 NE 1018,8 10 60 0,0
17.10.2018 13:00:00 19,9 10,2 24,0 19,3 16,6 17,3 8 4 16 9 E 1019,2 10 60 0,0
17.10.2018 12:00:00 18,0 10,4 21,5 17,7 16,4 17,3 5 3 13 7 E 1019,6 10 60 0,0
17.10.2018 11:00:00 16,4 10,4 18,4 16,4 16,2 17,3 11 6 15 8 E 1019,8 10 60 0,0
17.10.2018 10:00:00 14,0 9,9 14,6 15,0 16,3 17,3 9 5 13 7 NNE 1020,0 10 60 0,0
17.10.2018 09:00:00 12,6 9,8 11,8 13,9 16,4 17,3 9 5 10 5 ENE 1019,6 10 34 0,0
17.10.2018 08:00:00 10,8 8,9 8,9 14,0 16,6 17,3 6 3 8 4 ENE 1019,6 16 0 0,0
17.10.2018 07:00:00 11,6 9,2 10,0 14,3 16,8 17,3 9 5 9 5 ENE 1019,8 10 0 0,0
17.10.2018 06:00:00 12,6 10,1 11,1 14,5 17,0 17,3 9 5 14 8 NNW 1019,5 10 0 0,0
17.10.2018 05:00:00 11,9 9,6 9,7 14,8 17,3 17,3 13 7 11 6 E 1019,3 10 0 0,0
17.10.2018 04:00:00 12,4 9,9 10,0 15,3 17,5 17,3 4 2 8 4 - 1019,3 10 0 0,0
17.10.2018 03:00:00 13,1 10,0 10,8 15,9 17,7 17,3 5 3 11 6 E 1019,5 45 0 0,0
17.10.2018 02:00:00 15,5 10,7 13,4 16,4 17,9 17,3 8 4 12 6 ENE 1019,5 10 0 0,0
17.10.2018 01:00:00 16,2 10,9 12,7 17,1 18,0 17,3 9 5 12 7 NE 1019,7 45 0 0,0
17.10.2018 00:00:00 18,1 10,9 16,7 17,5 18,2 17,3 15 8 8 4 NNE 1019,7 10 0 0,0
16.10.2018 23:00:00 18,0 10,6 16,0 18,0 18,3 17,3 16 9 22 12 NNE 1019,7 10 0 0,0
16.10.2018 22:00:00 19,1 10,6 17,7 18,3 18,4 17,3 13 7 26 14 NNE 1019,5 10 0 0,0
16.10.2018 21:00:00 20,1 10,4 18,8 18,9 18,5 17,3 13 7 21 11 NNE 1019,3 10 0 0,0
16.10.2018 20:00:00 20,8 10,0 19,5 19,4 18,6 17,3 8 4 16 9 NE 1019,0 50 0 0,0
16.10.2018 19:00:00 22,4 9,8 21,3 20,2 18,6 17,3 18 10 29 15 NNE 1018,4 10 11 0,0
16.10.2018 18:00:00 23,8 9,5 23,5 21,3 18,5 17,3 11 6 28 15 N 1018,2 10 59 0,0
16.10.2018 17:00:00 24,4 9,3 25,3 22,2 18,2 17,3 16 9 24 13 NNE 1018,1 10 60 0,0
16.10.2018 16:00:00 24,5 9,4 26,6 22,5 17,8 17,3 16 8 23 13 NE 1018,1 50 60 0,0
16.10.2018 15:00:00 24,1 8,3 26,8 22,4 17,2 17,3 9 5 21 11 NE 1018,2 40 60 0,0
16.10.2018 14:00:00 22,0 8,6 27,3 21,4 16,7 17,3 4 2 21 11 - 1018,6 10 60 0,0
16.10.2018 13:00:00 19,8 8,3 23,5 19,7 16,2 17,3 4 2 13 7 NE 1019,0 28 60 0,0
16.10.2018 12:00:00 18,0 9,1 20,6 17,7 15,8 17,3 3 2 16 9 WNW 1019,5 28 60 0,0
16.10.2018 11:00:00 15,0 8,3 16,9 15,7 15,7 17,3 5 3 11 6 - 1019,6 10 60 0,0
16.10.2018 10:00:00 12,9 7,4 13,1 14,0 15,7 17,3 4 2 8 4 - 1019,5 10 60 0,0
16.10.2018 09:00:00 10,7 7,3 9,7 13,0 15,8 17,3 4 2 9 5 NE 1019,2 28 41 0,0
16.10.2018 08:00:00 10,2 7,7 8,6 13,1 16,0 17,3 11 6 8 4 E 1018,5 10 0 0,0
16.10.2018 07:00:00 11,3 8,2 9,7 13,3 16,2 17,3 8 4 9 5 ENE 1018,3 10 0 0,0
16.10.2018 06:00:00 11,0 8,3 8,8 13,4 16,4 17,3 6 3 9 5 NE 1017,9 20 0 0,0
16.10.2018 05:00:00 9,4 7,7 6,9 13,6 16,6 17,3 5 3 9 5 NE 1017,8 30 0 0,0
16.10.2018 04:00:00 10,6 7,6 7,6 14,0 16,8 17,3 5 3 8 4 NE 1017,3 35 0 0,0
16.10.2018 03:00:00 11,8 8,5 8,9 14,3 17,0 17,3 5 3 11 6 NNE 1016,9 10 0 0,0
16.10.2018 02:00:00 11,7 8,8 8,4 14,6 17,3 17,3 4 2 9 5 NE 1016,7 10 0 0,0
16.10.2018 01:00:00 11,6 8,6 8,1 15,1 17,5 17,3 5 3 11 6 N 1016,3 10 0 0,0
16.10.2018 00:00:00 13,8 9,0 9,9 15,6 17,8 17,3 6 3 9 5 NE 1016,0 45 0 0,0
15.10.2018 23:00:00 13,3 9,1 10,0 16,0 18,1 17,3 11 6 11 6 NNE 1015,9 10 0 0,0
15.10.2018 22:00:00 13,9 9,3 9,3 16,7 18,4 17,3 5 3 11 6 SSE 1015,4 10 0 0,0
15.10.2018 21:00:00 15,1 9,1 11,0 17,5 18,6 17,3 6 3 8 4 ENE 1015,2 55 0 0,0
15.10.2018 20:00:00 16,4 8,4 11,7 18,5 18,9 17,3 2 1 8 4 - 1014,8 10 0 0,0
15.10.2018 19:00:00 19,0 7,9 15,0 19,9 18,9 17,3 4 2 11 6 ENE 1014,3 55 15 0,0
15.10.2018 18:00:00 23,4 7,2 22,9 21,5 18,8 17,3 6 4 15 8 ENE 1013,5 60 58 0,0
15.10.2018 17:00:00 24,3 7,1 26,4 22,5 18,6 17,3 10 5 22 12 ENE 1013,3 55 60 0,0
15.10.2018 16:00:00 24,3 7,9 29,3 22,9 18,1 17,3 9 5 21 11 NE 1013,2 10 60 0,0
15.10.2018 15:00:00 23,5 7,8 29,1 22,6 17,6 17,3 9 5 15 8 ESE 1013,4 10 60 0,0
15.10.2018 14:00:00 21,6 7,5 26,8 21,6 17,1 17,3 9 5 13 7 ESE 1014,0 10 60 0,0
15.10.2018 13:00:00 20,2 7,1 24,7 19,9 16,7 17,3 4 2 11 6 - 1014,6 10 59 0,0
15.10.2018 12:00:00 19,2 7,8 23,5 18,4 16,3 17,3 5 3 12 6 - 1014,8 10 60 0,0
15.10.2018 11:00:00 16,9 8,4 19,1 16,6 16,2 17,3 8 4 13 7 E 1015,0 30 60 0,0
15.10.2018 10:00:00 15,1 8,4 16,3 15,0 16,1 17,3 11 6 12 7 E 1014,9 10 35 0,0
15.10.2018 09:00:00 13,2 8,9 12,3 14,1 16,3 17,3 5 3 9 5 ENE 1014,4 10 20 0,0
15.10.2018 08:00:00 11,5 8,7 9,1 13,9 16,4 17,3 5 3 13 7 ENE 1014,0 10 0 0,0
15.10.2018 07:00:00 10,8 8,7 8,4 14,0 16,6 17,3 11 6 13 7 ENE 1013,4 10 0 0,0
15.10.2018 06:00:00 11,4 8,7 9,4 14,4 16,8 17,2 8 4 15 8 E 1013,2 10 0 0,0
15.10.2018 05:00:00 11,7 8,7 10,2 14,6 17,0 17,2 11 6 13 7 E 1012,7 10 0 0,0
15.10.2018 04:00:00 13,0 9,4 11,0 14,9 17,2 17,2 11 6 9 5 NNE 1012,6 10 0 0,0
15.10.2018 03:00:00 12,0 9,2 9,9 15,0 17,4 17,2 7 4 11 6 NE 1012,6 30 0 0,0
15.10.2018 02:00:00 12,5 8,9 10,4 15,3 17,7 17,2 13 7 9 5 E 1012,2 10 0 0,0
15.10.2018 01:00:00 13,8 9,5 10,3 15,9 17,9 17,2 5 3 9 5 E 1011,9 10 0 0,0
15.10.2018 00:00:00 14,8 9,9 11,1 16,5 18,1 17,2 5 3 9 5 NNE 1011,7 10 0 0,0
14.10.2018 23:00:00 17,1 9,9 14,6 17,0 18,4 17,2 11 6 13 7 NNE 1011,6 10 0 0,0
14.10.2018 22:00:00 17,0 10,1 14,4 17,4 18,6 17,2 11 6 11 6 N 1011,6 10 0 0,0
14.10.2018 21:00:00 17,2 10,0 13,2 18,3 18,9 17,2 11 6 11 6 NNE 1011,5 10 0 0,0
14.10.2018 20:00:00 19,8 9,5 17,0 19,4 19,0 17,2 11 6 11 6 ENE 1011,2 10 0 0,0
14.10.2018 19:00:00 22,3 9,8 19,7 20,5 19,1 17,2 11 6 16 9 E 1010,8 10 26 0,0
14.10.2018 18:00:00 24,1 9,2 23,9 21,9 18,9 17,2 15 8 21 11 E 1010,6 10 57 0,0
14.10.2018 17:00:00 25,0 8,9 26,7 22,8 18,7 17,2 16 9 26 14 E 1010,4 10 60 0,0
14.10.2018 16:00:00 24,9 8,2 28,5 23,3 18,2 17,2 10 5 22 12 ESE 1010,8 45 60 0,0
14.10.2018 15:00:00 24,3 9,1 28,2 23,1 17,7 17,2 11 6 24 13 E 1011,4 10 60 0,0

tt = Température de l'air
td = dewpoint
tt 5cm = Température de l'air 5cm
tt -5cm = Température de l'air -5cm
tt -20cm = Température de l'air -20cm
tt -100cm = Température de l'air -100cm
ff = Vitesse du vent
fx = gusts
dd = Direction du vent
ppp = reduced air pressure
vv = visibility
sd = Ensoleillement
rr = Quantités de précipitations

stations d'obs. à proximité